Weather History for Lanai City, HI

Change the Weather History Date:

Wednesday, May 23, 2012

  Actual Average Record
Temperature  
Mean Temperature 73 °F -  
Max Temperature 81 °F 80 °F 85 °F (1993)
Min Temperature 65 °F 63 °F 59 °F (1951)
Cooling Degree Days 8    
Growing Degree Days 23 (Base 50)    
Moisture  
Dew Point 62 °F    
Average Humidity 69    
Maximum Humidity 84    
Minimum Humidity 54    
Precipitation  
Precipitation 0.00 in - - ()
Sea Level Pressure  
Sea Level Pressure 30.08 in    
Wind  
Wind Speed 12 mph (NNE)    
Max Wind Speed 21 mph    
Max Gust Speed -    
Visibility 10 miles    
Events      
Averages and records for this station are not official NWS values.
T = Trace of Precipitation, MM = Missing Value Source: NWS Daily Summary

Daily Weather History Graph

Daily Weather History Graph

Search for Another Location

Airport:

Trip Planner

Search our weather history database for the weather conditions in past years. The results will help you decide how hot, cold, wet, or windy it might be!

Date:

Astronomy

May. 23, 2012 Rise Set
Actual Time 5:47 AM HST 7:01 PM HST
Civil Twilight 5:23 AM HST 7:25 PM HST
Nautical Twilight 4:54 AM HST 7:54 PM HST
Astronomical Twilight 4:25 AM HST 8:24 PM HST
Moon 8:01 AM HST (5/23) 9:32 PM HST (5/23)
Length of Visible Light 14h 02m
Length of Day
13h 14m
Waxing Crescent, 8% of the Moon is Illuminated
May 23
Waxing Crescent
May 28
First Quarter
Jun 4
Full
Jun 11
Last Quarter
Jun 19
New

Hourly Weather History & Observations

Time (HST) Temp. Heat Index Dew Point Humidity Pressure Visibility Wind Dir Wind Speed Gust Speed Precip Events Conditions
12:56 AM 66.9 °F - 59.9 °F 78% 30.06 in 10.0 mi NE 20.7 mph - N/A   Clear
1:56 AM 66.9 °F - 59.9 °F 78% 30.05 in 10.0 mi NE 10.4 mph - N/A   Clear
2:56 AM 66.9 °F - 59.9 °F 78% 30.03 in 10.0 mi ENE 11.5 mph - N/A   Clear
3:56 AM 66.9 °F - 61.0 °F 81% 30.03 in 10.0 mi NNE 11.5 mph - N/A   Clear
4:56 AM 66.2 °F - 60.8 °F 83% 30.09 in 10.0 mi East 3.5 mph - N/A   Mostly Cloudy
5:56 AM 65.8 °F - 59.0 °F 79% 30.05 in 10.0 mi NNE 6.9 mph - N/A   Partly Cloudy
6:56 AM 70.9 °F - 61.0 °F 71% 30.07 in 10.0 mi NW 5.8 mph - N/A   Clear
7:56 AM 74.8 °F - 61.9 °F 64% 30.07 in 10.0 mi NE 16.1 mph - N/A   Partly Cloudy
8:56 AM 73.9 °F - 59.9 °F 61% 30.10 in 10.0 mi SSW 8.1 mph - N/A   Mostly Cloudy
9:56 AM 77.0 °F - 61.0 °F 58% 30.10 in 10.0 mi NW 8.1 mph - N/A   Scattered Clouds
10:56 AM 75.2 °F - 60.8 °F 61% 30.16 in 10.0 mi WNW 5.8 mph - N/A   Mostly Cloudy
11:56 AM 77.9 °F - 61.9 °F 58% 30.09 in 10.0 mi NNE 13.8 mph - N/A   Mostly Cloudy
12:56 PM 81.0 °F 82.2 °F 63.0 °F 54% 30.08 in 10.0 mi SSW 11.5 mph - N/A   Clear
1:56 PM 79.9 °F - 61.9 °F 54% 30.06 in 10.0 mi SW 9.2 mph - N/A   Partly Cloudy
2:31 PM 77.0 °F - 62.6 °F 61% 30.11 in 10.0 mi West 8.1 mph - N/A   Overcast
2:56 PM 79.9 °F - 63.0 °F 56% 30.03 in 10.0 mi NE 18.4 mph - N/A   Mostly Cloudy
3:05 PM 80.6 °F 81.8 °F 62.6 °F 54% 30.09 in 10.0 mi NE 15.0 mph - N/A   Mostly Cloudy
3:56 PM 79.0 °F - 63.9 °F 60% 30.03 in 10.0 mi South 9.2 mph - N/A   Partly Cloudy
4:56 PM 77.9 °F - 63.0 °F 60% 30.04 in 10.0 mi SSE 9.2 mph - N/A   Scattered Clouds
5:56 PM 75.9 °F - 63.9 °F 66% 30.04 in 10.0 mi NNE 16.1 mph - N/A   Partly Cloudy
6:56 PM 72.9 °F - 63.0 °F 71% 30.07 in 10.0 mi NE 10.4 mph - N/A   Clear
7:14 PM 71.6 °F - 62.6 °F 73% 30.13 in 10.0 mi NNE 10.4 mph - N/A   Mostly Cloudy
7:43 PM 69.8 °F - 62.6 °F 78% 30.13 in 10.0 mi NNE 9.2 mph - N/A   Partly Cloudy
7:56 PM 68.9 °F - 63.0 °F 81% 30.08 in 10.0 mi North 11.5 mph - N/A   Partly Cloudy
8:56 PM 68.9 °F - 63.0 °F 81% 30.10 in 10.0 mi NE 10.4 mph - N/A   Clear
9:56 PM 68.9 °F - 63.0 °F 81% 30.11 in 10.0 mi NE 6.9 mph - N/A   Partly Cloudy
10:56 PM 68.9 °F - 63.0 °F 81% 30.11 in 10.0 mi NE 12.7 mph - N/A   Partly Cloudy
11:56 PM 68.0 °F - 63.0 °F 84% 30.11 in 10.0 mi NE 12.7 mph - N/A   Scattered Clouds